Location: Bois de la Silve
(44.4667°N, 6.7833°E)
Time: 20:06:18
(UTC+00:00)

Cosmos 614 Rocket - Pass Details

Date: 14 July 2020
Orbit: 732 x 764 km, 74.1° (Epoch: 14 August)

Event Time Altitude Azimuth Distance (km) Brightness Sun altitude
Exits shadow 00:43:18 48° 154° (SSE) 964 4.2 -22.3°
Maximum altitude 00:44:23 59° 106° (ESE) 851 4.1 -22.2°
Drops below altitude 10° 00:49:25 10° 28° (NNE) 2,266 7.5 -22.0°
Sets 00:51:49 0° 25° (NNE) 3,199 8.7 -21.8°
